Starlink 31291

operational
NORAD ID: 59096 Int'l Des: 2024-041 Owner: SPXS Country: US Constellation: starlink
LEOCIRCULAR

About Starlink 31291

Description loading...

Live Position

Loading 3D Globe...

Upcoming Passes

Altitude History

Altitude vs Time

uPlot chart will show altitude changes over time

Two-Line Element Set

1 59096U 24041Y 25301.48767359 .00001404 00000-0 60545-4 0 9993
2 59096 43.0027 337.2425 0000789 265.7998 94.2763 15.27580701 94058
Epoch: Oct 28, 2025 • Age: 57 hours

Current Status

Altitude 483.1 km
Velocity 7.63 km/s
Sub-Earth Point 23.75°N, 124.02°E
Launch Date Feb 29, 2024
Age 1.6 years
Type internet

Technical Details

Classification Payload
Mass 730.00 kg
Dry Mass 700.00 kg
Total Mass 730.00 kg
Length 0.30 m
Diameter 4.10 m
Span 29.00 m
Shape Box + pan
Manufacturer SPXS
Bus Type Starlink V2M
Phase Status In Orbit
Owner/State SPXS/US

Large Constellations

Loading constellations...